Kemmerer, WY

12:49 AM MDT on April 25, 2017 (GMT -0600)
Kemmerer Municipal

Weather History for KEMM - July, 2013

Change the Weather History Date:

Wednesday, July 17, 2013

  Actual Average Record
Temperature  
Mean Temperature 70 °F -  
Max Temperature 82 °F 82 °F 92 °F (1990)
Min Temperature 59 °F 44 °F 34 °F (1975)
Cooling Degree Days 6    
Growing Degree Days 20 (Base 50)    
Moisture  
Dew Point 47 °F    
Average Humidity 46    
Maximum Humidity 67    
Minimum Humidity 25    
Precipitation  
Precipitation 0.00 in - - ()
Sea Level Pressure  
Sea Level Pressure 30.37 in    
Wind  
Wind Speed 8 mph (NE)    
Max Wind Speed 23 mph    
Max Gust Speed 29 mph    
Visibility 10 miles    
Events Thunderstorm    
Averages and records for this station are not official NWS values.
T = Trace of Precipitation, MM = Missing Value Source: NWS Daily Summary

Daily Weather History Graph

Daily Weather History Graph

Search for Another Location

Airport or City:

Trip Planner

Search our weather history database for the weather conditions in past years. The results will help you decide how hot, cold, wet, or windy it might be!

Date:

Astronomy

Jul. 17, 2013 Rise Set
Actual Time 6:02 AM MDT 8:53 PM MDT
Civil Twilight 5:29 AM MDT 9:26 PM MDT
Nautical Twilight 4:47 AM MDT 10:08 PM MDT
Astronomical Twilight 3:59 AM MDT 10:56 PM MDT
Moon 3:45 PM MDT (7/17) 1:13 AM MDT (7/17)
Length of Visible Light 15h 57m
Length of Day
14h 51m
Waxing Gibbous, 68% of the Moon is Illuminated
Jul 17
Waxing Gibbous
Jul 22
Full
Jul 29
Last Quarter
Aug 6
New
Aug 14
First Quarter

Hourly Weather History & Observations

Time (MDT) Temp. Dew Point Humidity Pressure Visibility Wind Dir Wind Speed Gust Speed Precip Events Conditions
12:15 AM 64.4 °F 48.2 °F 56% 30.35 in 10.0 mi Calm Calm - N/A   Clear
12:55 AM 65.1 °F 47.3 °F 52% 30.34 in 10.0 mi ENE 6.9 mph - N/A   Clear
1:15 AM 65.1 °F 47.5 °F 53% 30.35 in 10.0 mi NE 6.9 mph - N/A   Clear
1:35 AM 64.8 °F 47.7 °F 54% 30.35 in 10.0 mi East 3.5 mph - N/A   Clear
1:55 AM 64.0 °F 47.7 °F 55% 30.35 in 10.0 mi ENE 4.6 mph - N/A   Scattered Clouds
2:15 AM 64.0 °F 47.7 °F 55% 30.35 in 10.0 mi ENE 8.1 mph - N/A   Mostly Cloudy
2:35 AM 63.7 °F 47.8 °F 56% 30.35 in 10.0 mi ENE 9.2 mph - N/A   Mostly Cloudy
2:55 AM 63.1 °F 48.2 °F 58% 30.35 in 10.0 mi ENE 11.5 mph - N/A   Overcast
3:15 AM 63.5 °F 48.2 °F 57% 30.34 in 10.0 mi ENE 12.7 mph 18.4 mph N/A   Mostly Cloudy
3:35 AM 63.7 °F 48.0 °F 57% 30.34 in 10.0 mi NE 13.8 mph 17.3 mph N/A   Scattered Clouds
3:55 AM 62.8 °F 48.2 °F 59% 30.34 in 10.0 mi NNE 11.5 mph - N/A   Clear
4:15 AM 63.3 °F 47.8 °F 57% 30.34 in 10.0 mi NNE 12.7 mph 17.3 mph N/A   Mostly Cloudy
4:35 AM 63.3 °F 47.8 °F 57% 30.34 in 10.0 mi NE 12.7 mph 21.9 mph N/A   Scattered Clouds
4:55 AM 62.8 °F 47.8 °F 58% 30.34 in 10.0 mi NE 12.7 mph - N/A   Clear
5:15 AM 61.5 °F 48.2 °F 62% 30.35 in 10.0 mi NNE 12.7 mph - N/A   Clear
5:35 AM 60.8 °F 48.2 °F 63% 30.36 in 10.0 mi NE 11.5 mph - N/A   Clear
5:55 AM 60.1 °F 48.2 °F 65% 30.35 in 10.0 mi ENE 10.4 mph - N/A   Clear
6:15 AM 59.5 °F 48.2 °F 66% 30.36 in 10.0 mi NNE 9.2 mph - N/A   Clear
6:35 AM 59.4 °F 48.4 °F 67% 30.37 in 10.0 mi NNE 6.9 mph - N/A   Clear
6:55 AM 60.3 °F 48.6 °F 65% 30.37 in 10.0 mi NE 8.1 mph - N/A   Clear
7:15 AM 62.6 °F 48.9 °F 61% 30.37 in 10.0 mi NE 10.4 mph - N/A   Clear
7:35 AM 64.9 °F 49.1 °F 56% 30.38 in 10.0 mi ENE 8.1 mph - N/A   Clear
7:55 AM 66.9 °F 49.1 °F 53% 30.38 in 10.0 mi ENE 9.2 mph - N/A   Clear
8:15 AM 67.8 °F 48.7 °F 50% 30.38 in 10.0 mi ENE 9.2 mph - N/A   Clear
8:35 AM 68.9 °F 48.4 °F 48% 30.38 in 10.0 mi East 4.6 mph - N/A   Clear
8:55 AM 69.1 °F 48.2 °F 47% 30.38 in 10.0 mi East 5.8 mph - N/A   Clear
9:15 AM 69.3 °F 48.0 °F 47% 30.39 in 10.0 mi ESE 6.9 mph - N/A   Clear
9:35 AM 70.3 °F 47.3 °F 44% 30.38 in 10.0 mi SE 3.5 mph - N/A   Clear
9:55 AM 71.1 °F 46.0 °F 41% 30.38 in 10.0 mi East 5.8 mph - N/A   Clear
10:15 AM 72.7 °F 45.9 °F 38% 30.39 in 10.0 mi East 4.6 mph - N/A   Clear
10:35 AM 74.1 °F 45.9 °F 36% 30.38 in 10.0 mi ESE 4.6 mph - N/A   Clear
10:55 AM 74.8 °F 46.0 °F 36% 30.39 in 10.0 mi Calm Calm - N/A   Clear
11:15 AM 75.6 °F 45.9 °F 35% 30.39 in 10.0 mi Calm Calm - N/A   Clear
11:35 AM 76.8 °F 45.5 °F 33% 30.39 in 10.0 mi NE 4.6 mph - N/A   Clear
11:55 AM 77.7 °F 44.8 °F 31% 30.39 in 10.0 mi West 6.9 mph - N/A   Clear
12:15 PM 78.3 °F 44.4 °F 30% 30.39 in 10.0 mi Calm Calm - N/A   Clear
12:35 PM 79.7 °F 44.2 °F 28% 30.38 in 10.0 mi WSW 4.6 mph - N/A   Clear
12:55 PM 80.1 °F 44.4 °F 28% 30.38 in 10.0 mi SW 3.5 mph - N/A   Clear
1:15 PM 81.3 °F 44.4 °F 27% 30.37 in 10.0 mi ESE 4.6 mph - N/A   Clear
1:35 PM 81.5 °F 44.2 °F 27% 30.37 in 10.0 mi North 6.9 mph - N/A   Scattered Clouds
1:55 PM 80.8 °F 44.4 °F 28% 30.36 in 10.0 mi NE 8.1 mph - N/A   Scattered Clouds
2:15 PM 82.8 °F 44.1 °F 26% 30.35 in 10.0 mi Calm Calm - N/A   Scattered Clouds
2:35 PM 81.9 °F 43.5 °F 26% 30.35 in 10.0 mi NW 3.5 mph - N/A   Scattered Clouds
2:55 PM 80.8 °F 43.3 °F 27% 30.35 in 10.0 mi North 3.5 mph - N/A   Overcast
3:15 PM 81.1 °F 42.8 °F 26% 30.35 in 10.0 mi NNW 6.9 mph - N/A   Mostly Cloudy
3:35 PM 82.2 °F 43.0 °F 25% 30.34 in 10.0 mi West 23.0 mph 27.6 mph N/A   Scattered Clouds
3:55 PM 79.7 °F 46.8 °F 31% 30.34 in 10.0 mi West 21.9 mph 28.8 mph N/A   Clear
4:15 PM 77.5 °F 47.1 °F 34% 30.34 in 10.0 mi West 23.0 mph 27.6 mph N/A   Clear
4:35 PM 77.2 °F 44.6 °F 31% 30.34 in 10.0 mi WNW 19.6 mph 27.6 mph N/A   Clear
4:55 PM 77.9 °F 40.1 °F 26% 30.34 in 10.0 mi WNW 9.2 mph - N/A   Scattered Clouds
5:15 PM 77.0 °F 41.7 °F 28% 30.35 in 10.0 mi South 12.7 mph 20.7 mph N/A   Mostly Cloudy
5:35 PM 70.3 °F 51.6 °F 51% 30.36 in 10.0 mi South 15.0 mph 19.6 mph N/A   Scattered Clouds
5:55 PM 69.1 °F 51.4 °F 53% 30.37 in 10.0 mi South 13.8 mph - N/A   Scattered Clouds
6:15 PM 70.0 °F 50.5 °F 50% 30.37 in 10.0 mi South 12.7 mph 19.6 mph N/A   Scattered Clouds
6:35 PM 70.3 °F 49.3 °F 47% 30.37 in 10.0 mi South 10.4 mph - N/A   Mostly Cloudy
6:55 PM 69.1 °F 49.3 °F 49% 30.37 in 10.0 mi South 11.5 mph - N/A   Scattered Clouds
7:15 PM 69.4 °F 48.6 °F 47% 30.37 in 10.0 mi South 9.2 mph - N/A   Clear
7:35 PM 71.2 °F 46.9 °F 42% 30.37 in 10.0 mi SSW 10.4 mph - N/A   Scattered Clouds
7:55 PM 70.9 °F 46.8 °F 42% 30.37 in 10.0 mi SSW 12.7 mph - N/A   Scattered Clouds
8:15 PM 70.5 °F 47.1 °F 43% 30.37 in 10.0 mi SW 10.4 mph - N/A   Mostly Cloudy
8:35 PM 70.2 °F 46.9 °F 43% 30.38 in 10.0 mi SW 9.2 mph - N/A   Scattered Clouds
8:55 PM 68.9 °F 46.9 °F 45% 30.37 in 10.0 mi WSW 8.1 mph - N/A   Clear
9:15 PM 67.3 °F 47.3 °F 49% 30.37 in 10.0 mi WSW 8.1 mph - N/A   Clear
9:35 PM 66.4 °F 47.7 °F 51% 30.38 in 10.0 mi WSW 5.8 mph - N/A   Clear
9:55 PM 65.5 °F 47.7 °F 53% 30.40 in 10.0 mi NW 3.5 mph - N/A Thunderstorm Clear
10:15 PM 65.1 °F 47.7 °F 53% 30.41 in 10.0 mi NNW 10.4 mph - N/A   Clear
10:35 PM 64.4 °F 50.0 °F 59% 30.41 in 10.0 mi NNW 9.2 mph - N/A   Clear
10:55 PM 64.0 °F 51.8 °F 64% 30.40 in 10.0 mi North 9.2 mph - N/A   Clear
11:35 PM 63.9 °F 50.2 °F 61% 30.40 in 10.0 mi North 9.2 mph - N/A   Clear
11:55 PM 62.4 °F 49.1 °F 62% 30.39 in 10.0 mi North 11.5 mph - N/A   Clear